Theta_e
346 352 360 356 355 355 355 354 354 354 353 351 350 350 352 354 354 355 354 353 354 353 352 352 353 353 353 353 352 352 352 352 353 353 353 353 351 351 348 350 353 354 356
349 352 358 356 355 355 354 354 353 353 350 350 352 353 354 354 356 356 354 351 353 353 350 350 350 349 349 350 351 350 351 353 353 353 353 351 351 351 352 349 355 353 356
350 352 353 357 356 355 354 353 352 350 350 352 353 354 355 356 354 353 352 352 351 350 349 347 348 349 349 348 348 348 348 349 349 350 345 341 344 351 351 352 354 355 356
350 350 351 357 355 354 353 352 350 350 352 354 356 355 354 352 351 350 349 349 348 348 346 346 344 343 343 343 344 345 346 347 348 346 337 336 337 344 350 356 355 355 355
348 349 351 356 354 353 352 350 350 353 356 354 352 350 350 349 346 344 343 341 339 338 338 338 339 339 339 339 340 340 341 342 345 340 335 334 336 338 348 352 359 357 355
347 348 355 354 354 352 349 352 353 356 354 352 351 349 346 339 339 338 337 337 338 338 339 339 339 339 338 338 339 342 343 343 342 335 335 334 334 338 349 356 359 355 354
344 348 350 355 353 350 352 355 355 353 351 349 347 343 341 338 337 337 337 337 337 338 338 339 338 337 337 337 337 339 344 339 333 332 332 333 332 346 353 357 355 353 354
345 347 349 354 351 354 355 354 352 350 348 345 344 341 339 337 336 335 335 337 339 338 337 336 336 336 337 339 339 339 339 339 333 336 338 332 346 352 351 347 351 350 350
346 345 345 345 349 355 353 352 349 347 345 343 342 340 339 338 337 336 336 338 337 336 336 336 336 337 338 339 340 339 341 342 333 338 341 344 352 349 347 347 347 348 349
345 343 342 344 346 346 346 349 345 343 341 340 340 340 334 333 337 338 337 338 335 335 335 336 336 336 338 338 338 339 339 339 335 337 339 342 348 347 347 346 345 346 348
342 342 340 340 341 340 339 339 341 338 339 334 338 334 326 325 325 330 335 333 333 333 334 335 335 334 332 335 336 337 335 330 334 336 339 344 345 343 343 342 343 345 345
337 340 339 337 337 336 338 331 329 326 324 323 322 321 321 323 327 326 328 329 330 329 332 333 333 332 328 325 326 330 328 330 332 334 338 342 343 344 344 344 343 343 345
337 339 339 335 335 334 332 329 326 322 321 321 322 319 321 321 319 317 316 315 317 323 318 320 321 321 323 324 325 326 328 329 329 331 337 339 340 341 342 342 343 343 343
335 337 339 335 334 331 331 328 323 321 321 319 320 320 320 318 316 315 314 315 316 317 317 318 318 320 322 324 323 324 325 326 327 329 334 338 338 339 340 340 339 340 339
333 336 338 336 334 331 330 328 322 322 320 320 320 321 320 316 314 313 314 315 315 316 316 316 317 318 321 323 323 322 322 324 325 326 328 336 336 337 337 337 338 338 337
333 335 337 336 335 331 329 327 321 323 321 320 320 320 319 314 312 314 313 313 313 314 315 315 316 316 319 322 322 322 321 321 323 323 324 326 333 334 335 335 335 335 335
333 335 335 336 334 331 329 326 323 323 321 319 320 319 317 313 313 313 312 311 312 313 314 315 313 314 317 319 320 320 321 321 322 322 322 323 324 330 331 331 332 332 332
333 332 335 337 334 332 328 325 323 322 319 319 318 318 317 314 314 312 311 310 310 311 311 312 312 309 311 316 317 319 319 320 319 319 320 321 323 323 326 329 330 330 330
333 332 334 336 332 330 325 324 323 320 319 318 317 317 317 315 314 311 310 309 309 309 310 311 309 309 307 310 315 317 318 318 318 317 317 318 319 320 320 325 327 325 323
334 334 336 332 328 325 324 322 321 319 317 317 316 315 315 314 312 310 309 309 308 307 308 309 307 305 305 306 314 315 317 317 317 317 317 318 318 319 319 319 319 318 319
335 335 333 327 325 323 321 320 319 316 315 315 315 315 314 312 311 309 308 308 307 306 305 308 306 304 302 302 311 313 312 314 314 313 314 316 317 318 319 318 317 317 315
334 333 329 327 325 326 324 322 322 321 319 313 313 312 313 312 311 310 309 308 307 305 305 304 304 302 303 301 305 308 306 304 307 308 310 312 312 313 316 318 317 317 316
334 330 329 329 327 325 323 321 319 322 317 312 310 310 311 312 312 310 309 308 306 305 304 304 304 304 301 302 301 304 297 297 299 302 304 305 309 311 312 311 316 317 316
329 328 329 330 327 326 324 321 318 318 316 311 310 310 310 311 311 310 309 309 307 305 305 305 304 303 302 301 302 300 300 300 298 298 302 302 303 306 305 304 309 315 315
332 328 329 329 327 328 324 320 317 317 317 310 309 309 310 310 311 310 309 308 308 305 304 305 305 304 302 302 301 300 299 299 299 298 297 300 303 304 305 305 304 310 313
333 332 330 326 325 325 323 320 318 317 314 309 307 307 308 308 309 310 310 309 307 307 305 304 304 304 303 303 302 302 300 301 300 300 298 298 298 302 303 306 306 307 310
Wind_Speed
4 5 13 13 12 12 13 14 14 14 13 12 12 11 11 11 10 10 10 10 9 10 10 10 10 10 9 10 10 9 9 8 7 7 6 6 5 4 4 5 6 3 2
8 6 13 13 12 12 13 13 12 12 11 11 11 10 10 9 10 11 10 10 10 11 10 10 10 10 10 10 10 10 9 8 7 6 6 6 7 6 7 7 6 4 4
10 7 10 13 14 13 12 11 11 11 10 10 9 9 9 12 12 11 10 10 10 9 9 9 10 10 10 10 10 10 10 9 9 8 8 4 5 8 8 10 8 5 5
9 7 7 12 12 12 11 11 10 10 9 8 7 11 12 11 10 9 9 9 9 9 9 10 10 11 11 10 10 10 9 9 9 9 5 6 6 9 9 10 11 9 8
8 7 8 13 13 12 11 10 9 9 9 10 10 9 9 9 9 9 9 9 9 9 10 11 12 11 11 11 9 8 8 8 8 6 6 6 5 8 11 12 13 9 7
7 7 12 13 13 12 11 11 9 10 10 9 10 9 9 10 11 11 11 11 11 12 12 11 11 12 12 12 12 13 9 8 8 6 6 8 7 10 14 13 15 9 9
6 5 8 14 13 12 11 10 10 10 9 9 9 9 9 9 10 11 11 11 11 11 11 10 11 13 13 12 11 11 10 13 8 6 6 7 6 13 5 2 7 6 5
8 7 7 13 13 12 11 11 10 9 8 9 8 8 8 7 7 9 10 11 11 12 14 14 14 13 13 13 12 12 14 14 9 8 7 6 8 11 14 12 8 6 6
5 6 5 4 9 14 11 10 10 8 8 7 7 7 7 6 5 7 9 11 13 13 14 14 13 12 14 14 15 15 14 15 9 8 10 6 10 10 11 9 8 7 7
6 5 5 5 4 4 5 10 9 8 8 5 5 6 9 10 11 10 11 12 12 13 13 12 15 14 14 14 14 14 14 14 9 9 7 8 14 15 13 11 8 7 8
8 6 5 6 5 5 4 6 8 8 8 8 7 9 7 4 5 7 12 13 13 12 12 13 15 15 14 14 15 14 13 5 7 6 5 13 13 13 13 12 12 11 10
13 12 5 5 5 5 4 6 5 6 4 4 5 6 4 4 4 7 10 12 12 11 13 14 14 15 11 6 5 10 5 7 7 6 6 17 16 15 15 13 13 13 13
13 10 9 6 6 6 5 4 3 3 3 3 5 5 4 4 4 3 3 4 3 9 4 7 6 6 7 5 6 6 7 7 5 5 10 17 17 16 17 15 16 14 15
12 13 12 8 8 7 4 4 4 3 3 3 3 5 4 3 4 3 3 3 3 3 5 4 3 4 5 6 7 9 9 7 6 5 8 19 19 19 18 18 16 18 17
11 12 12 10 10 7 6 4 3 3 3 4 3 3 3 4 4 3 3 3 3 3 3 3 3 4 5 7 8 8 9 8 8 6 5 20 19 19 19 18 19 20 20
12 12 11 12 10 8 6 6 5 4 4 4 3 3 5 4 4 3 3 3 3 3 3 3 3 3 5 5 7 7 7 7 8 8 6 7 18 19 19 18 18 18 19
13 12 13 12 10 10 8 7 6 5 4 4 3 5 5 5 5 5 3 3 2 2 3 3 4 4 5 4 6 5 6 6 7 9 7 6 8 17 19 19 19 19 19
7 8 8 10 12 13 8 6 4 4 4 4 4 4 5 6 5 4 3 3 3 3 2 2 2 4 4 3 3 4 5 5 7 7 7 6 6 6 11 17 18 18 17
11 11 9 9 12 9 8 7 5 5 4 4 3 4 6 6 6 5 3 3 3 3 2 2 4 2 2 2 4 3 3 4 5 5 7 8 8 7 6 12 16 19 18
8 8 10 7 8 8 6 7 6 4 3 3 3 3 6 5 6 5 3 4 4 2 3 3 2 4 2 2 5 4 4 3 2 4 5 5 5 7 6 7 6 7 16
7 6 5 7 4 5 5 4 3 3 3 3 3 5 6 5 5 7 4 4 3 3 2 0 1 3 5 2 3 4 5 4 3 4 3 3 4 4 5 5 3 4 4
6 8 10 10 8 5 4 3 3 3 3 1 4 4 5 6 6 5 6 3 3 3 4 3 1 2 3 3 2 2 3 1 2 4 2 2 3 2 2 2 3 4 4
10 11 12 11 11 6 4 6 6 2 2 3 2 2 3 5 6 6 5 4 3 2 2 2 2 4 3 4 5 2 2 2 1 2 3 3 3 1 1 2 2 3 4
13 10 13 13 9 9 9 6 12 7 4 2 2 2 3 5 6 6 5 4 3 2 3 2 2 2 2 2 2 5 4 2 2 1 1 2 3 3 4 4 3 4 3
11 8 9 11 12 5 8 9 10 9 4 3 2 5 3 3 4 5 5 5 3 1 1 1 3 4 2 2 1 1 2 4 3 2 1 3 2 2 3 3 2 3 3
14 13 10 10 6 13 11 11 12 13 8 5 4 4 3 2 2 3 4 4 3 2 2 1 3 5 4 4 2 2 1 1 1 2 2 0 2 3 3 3 3 3 3
Wind_Direction
159 150 135 135 132 123 110 105 105 101 98 96 96 94 92 89 83 79 73 68 61 55 49 46 44 42 34 36 38 34 28 19 12 3 352 343 330 305 283 275 289 255 231
129 138 132 137 133 122 113 111 105 101 101 100 99 99 94 87 81 74 58 61 54 45 47 39 38 36 33 32 29 27 22 19 11 2 358 344 316 293 272 257 262 228 228
132 135 135 142 136 124 120 115 111 108 104 101 99 93 85 73 66 63 56 49 44 47 41 33 31 29 29 28 21 14 9 6 3 3 354 335 306 282 255 243 234 215 207
125 124 134 137 129 129 125 118 115 110 104 100 97 77 71 66 65 60 54 49 45 40 36 32 23 21 18 19 12 3 355 354 351 352 342 327 312 296 280 253 228 213 203
120 126 146 138 139 134 129 123 120 115 105 84 81 79 73 66 59 57 55 48 46 44 43 39 35 31 27 25 17 2 349 349 348 350 328 317 304 293 288 269 222 208 205
133 142 141 146 144 143 135 126 132 114 100 96 89 83 81 75 62 53 53 52 50 44 40 34 27 27 26 23 21 17 15 355 1 345 324 316 316 301 295 274 228 203 203
141 143 141 151 149 142 138 142 120 110 108 101 98 93 93 72 60 53 47 44 46 40 34 30 32 28 25 21 14 20 18 30 21 0 345 330 328 320 342 99 153 198 218
148 145 163 157 150 148 141 129 123 117 107 103 105 100 84 67 49 46 38 43 45 47 46 37 33 30 33 35 41 43 45 43 31 17 8 6 351 34 47 41 33 22 357
140 141 145 153 159 149 141 130 122 114 113 115 108 90 67 39 26 33 50 61 50 53 39 36 32 49 50 46 44 45 52 48 38 22 26 20 28 35 36 39 30 19 6
150 152 155 143 117 114 122 129 125 128 122 113 117 82 59 46 50 73 65 59 54 48 43 51 60 55 56 51 46 46 45 43 33 27 21 25 33 39 38 32 26 18 8
174 174 162 146 129 124 121 139 131 126 98 69 122 87 65 53 45 45 58 57 54 49 50 61 64 63 56 49 48 46 41 30 35 24 24 31 38 37 33 28 22 11 0
188 186 177 140 140 143 139 98 98 94 100 98 105 95 85 67 77 63 55 52 50 46 59 61 64 62 55 40 34 38 39 29 29 16 33 37 34 31 26 19 20 20 27
183 189 178 162 149 151 129 134 124 127 125 100 103 98 91 84 71 54 47 33 22 47 52 53 51 50 51 42 43 45 44 42 30 16 35 41 37 33 33 42 38 35 38
189 189 187 162 158 166 151 153 147 132 112 102 103 115 113 96 72 63 53 45 43 39 63 64 58 58 60 55 53 56 50 45 35 26 27 52 48 48 50 49 49 50 48
195 188 189 170 171 164 159 140 127 124 115 117 100 99 100 101 93 81 70 65 49 44 61 75 81 72 72 65 54 56 54 48 42 37 25 52 52 51 53 54 56 61 60
189 196 186 181 168 163 152 153 151 140 133 116 102 90 91 95 98 88 68 59 51 40 46 73 89 95 80 76 67 57 56 56 55 49 41 28 53 56 54 55 53 57 56
195 188 187 178 162 169 171 161 150 146 137 114 115 105 96 93 92 95 79 59 32 26 48 72 67 79 90 81 84 73 67 53 59 56 48 41 31 48 54 58 63 62 65
188 186 181 181 176 172 160 145 142 135 120 121 126 115 114 101 95 81 75 44 10 35 43 78 80 73 81 90 100 77 76 64 55 45 49 38 33 30 37 60 56 58 60
181 165 180 189 181 158 138 137 123 128 120 129 134 118 115 107 96 84 73 54 30 44 41 64 46 87 79 93 125 98 77 66 67 61 56 47 43 42 31 30 43 50 46
169 164 173 168 138 145 129 122 122 126 117 133 122 112 118 108 109 107 76 51 35 51 45 52 81 49 95 124 116 100 89 90 64 66 53 57 44 47 34 31 34 33 54
147 160 126 98 75 126 109 81 17 146 141 118 112 113 114 115 118 102 87 62 31 53 38 311 75 47 36 36 115 84 57 59 54 68 54 50 42 35 43 29 22 26 30
74 62 68 81 67 52 64 59 59 14 341 320 123 114 129 119 118 112 105 81 58 48 38 32 47 92 36 7 115 97 144 359 5 27 49 51 11 336 36 18 16 3 360
98 101 106 104 83 60 112 107 104 73 357 329 52 94 119 132 130 111 112 107 70 61 39 27 58 91 123 24 42 124 137 167 210 346 17 49 357 312 327 294 279 298 344
118 119 117 122 134 162 177 161 157 134 214 228 198 114 141 120 122 124 117 114 97 59 69 22 66 103 110 92 31 35 49 131 151 118 2 10 22 16 349 337 320 288 333
110 150 171 147 149 190 186 208 158 147 173 152 109 130 134 118 134 137 143 128 117 99 102 100 82 72 75 100 77 161 46 58 73 122 105 339 12 17 3 332 305 287 284
167 161 168 204 182 157 186 196 182 159 159 145 142 159 158 118 139 160 151 129 141 171 155 184 90 83 88 82 76 62 84 98 52 96 107 139 295 307 310 328 347 339 306